Wetbulb
62.23 56.65 53.38 52.02 45.88 43.14 40.27 44.75 48.91 50.17 51.32 58.21 62.33 60.91 60.06 62.19 59.70 54.20 68.85 72.26 74.15 74.30 75.24 75.23 76.85 76.94 76.83 76.53 76.35 76.07 75.99 76.04 76.32 76.47 76.37 76.42 76.40 76.48 76.45 76.30 76.21 75.81 74.75 73.76 73.51 73.68 73.89 74.08 73.94
55.81 54.65 51.59 47.33 42.27 37.87 41.44 46.59 47.57 49.53 52.42 53.81 60.57 61.93 61.67 60.35 67.64 68.03 68.97 73.66 74.04 74.71 74.92 75.10 76.80 76.68 76.66 76.22 76.04 75.74 75.92 75.92 75.84 76.04 76.25 76.32 76.37 76.30 75.98 76.02 75.99 75.07 74.18 73.30 73.60 74.07 74.28 73.97 73.64
51.44 52.72 47.23 43.54 38.25 39.16 42.51 46.82 48.49 50.04 51.76 52.10 58.19 63.45 63.00 63.21 68.78 68.57 71.30 73.66 74.24 74.52 75.28 75.26 76.69 76.54 76.37 76.10 75.89 75.54 75.61 75.57 75.64 75.82 75.95 75.85 75.97 75.79 75.84 75.95 75.81 74.59 73.58 73.09 73.64 74.08 74.48 74.38 74.01
48.25 48.10 45.70 41.22 38.61 42.78 45.46 46.83 47.85 49.27 50.07 54.35 60.03 60.99 65.16 69.25 69.53 70.97 73.91 74.14 73.48 74.12 74.92 76.28 76.59 76.44 76.37 75.85 75.92 75.49 75.55 75.64 75.80 75.78 75.70 75.58 75.55 75.56 75.46 75.52 75.16 74.57 73.31 73.19 73.61 74.37 74.71 74.66 74.43
46.39 43.81 39.00 37.20 39.73 45.43 46.89 48.60 48.25 46.84 47.85 53.22 60.92 61.12 62.25 69.56 72.46 73.51 73.63 73.73 72.91 73.34 74.48 75.68 76.41 76.27 76.27 76.18 75.90 75.60 75.35 75.42 75.74 75.87 75.80 75.87 75.71 75.60 75.43 75.22 74.64 74.20 73.93 73.55 73.65 74.08 74.66 74.53 74.16
42.33 41.92 36.57 35.88 40.82 46.88 48.23 47.53 46.54 45.36 47.02 59.73 61.17 61.72 62.16 70.71 71.48 72.58 73.54 72.56 73.23 73.02 74.51 74.92 75.96 75.99 75.92 76.12 75.87 75.42 75.02 75.02 75.34 75.66 75.94 75.84 75.68 75.38 75.38 74.94 74.56 74.09 73.96 74.00 74.00 74.49 74.55 74.07 73.58
40.74 38.50 36.04 37.74 42.01 42.07 47.49 45.81 44.27 44.69 45.95 52.77 62.85 58.93 61.26 67.96 70.38 72.47 72.18 72.51 73.13 73.67 73.90 73.79 74.38 75.26 75.87 75.68 75.46 75.28 75.01 74.94 75.01 74.93 75.10 75.20 75.15 75.10 74.93 74.79 74.47 74.18 73.76 73.74 73.79 73.98 73.95 73.55 73.13
42.71 40.28 36.23 38.76 39.51 40.86 47.94 45.81 43.99 45.59 47.81 55.95 62.28 57.09 58.52 65.79 70.37 70.19 70.80 71.36 71.75 73.01 73.24 73.27 73.72 74.29 74.07 74.28 75.81 75.53 75.12 75.15 74.99 75.17 74.94 74.87 74.82 74.72 74.87 73.91 74.06 74.15 73.64 73.39 73.22 73.16 72.94 72.40 71.85
43.78 36.96 35.55 38.73 40.32 43.34 45.99 45.20 47.95 48.71 48.03 52.38 54.57 57.14 60.12 69.30 69.27 68.36 69.75 70.17 70.65 71.62 71.47 72.66 73.02 73.20 73.29 73.35 74.65 75.34 75.44 75.46 75.21 75.17 75.09 73.93 73.15 73.27 73.50 73.50 73.23 74.24 73.98 73.36 72.99 72.62 71.83 71.36 70.82
42.72 36.32 38.57 43.40 43.73 42.71 44.42 46.21 46.35 46.82 48.22 49.32 52.74 54.14 67.54 68.80 67.78 67.08 67.84 68.18 69.18 69.87 70.78 71.92 72.35 72.87 72.60 73.51 73.11 73.23 73.79 74.36 73.93 73.89 73.62 72.74 72.11 72.02 72.75 73.09 73.79 73.35 74.12 73.75 73.04 72.64 72.03 71.51 68.27
41.06 38.39 43.45 45.14 44.94 44.23 43.66 44.73 46.57 46.24 44.48 47.13 48.30 50.09 57.64 64.71 66.53 66.84 67.65 68.49 68.87 69.63 70.47 71.53 71.92 72.83 73.11 73.05 73.19 73.39 73.19 73.68 73.23 73.11 72.80 72.46 72.03 72.05 72.66 71.58 72.01 72.18 72.33 71.84 70.75 70.32 69.66 68.91 67.74
39.62 42.85 44.51 45.03 46.76 46.06 43.66 45.15 45.36 46.86 47.55 49.08 49.68 50.63 50.31 57.63 62.09 64.79 66.82 67.91 68.51 69.32 69.67 70.95 71.60 72.33 72.59 72.76 73.52 72.90 72.48 73.04 72.45 73.12 72.60 71.83 70.95 70.52 70.92 70.87 70.43 70.28 70.43 70.29 69.61 68.44 68.41 67.90 67.69
40.23 43.16 44.56 45.72 45.30 43.47 45.37 43.53 45.02 45.83 48.96 49.28 48.47 49.59 49.14 48.92 52.28 55.54 65.07 67.19 68.45 68.92 69.66 70.07 71.31 71.73 72.07 72.25 73.00 72.14 72.00 72.45 72.40 72.47 72.60 72.32 70.86 70.09 70.26 70.26 70.20 69.65 69.51 69.10 68.42 67.61 67.11 66.74 66.42
42.38 43.69 44.44 43.55 43.51 41.71 42.77 43.95 43.95 45.87 49.37 48.71 47.78 47.63 48.29 48.45 48.56 49.09 51.26 54.37 65.40 69.25 69.75 70.20 70.56 71.40 71.86 71.64 72.15 72.00 71.77 72.48 72.01 72.44 72.21 71.90 71.10 70.18 69.52 69.70 69.58 69.01 68.92 69.00 68.41 67.41 66.17 65.42 65.11
42.07 40.29 42.00 42.16 43.00 43.03 42.70 40.82 41.69 47.35 48.53 47.89 47.24 46.80 47.13 47.61 47.91 48.51 49.71 50.95 53.22 61.07 68.65 69.23 69.80 70.48 70.77 70.76 71.49 71.31 71.67 72.07 72.04 71.59 71.95 71.91 71.97 70.60 70.28 69.22 68.93 69.29 68.73 68.31 67.67 67.18 66.48 64.87 64.07
40.40 38.70 36.20 41.41 42.90 44.10 43.95 37.32 44.84 47.57 46.60 46.03 46.18 46.34 46.96 47.13 48.06 48.66 48.96 49.50 51.67 57.65 61.18 67.38 70.08 69.34 69.66 69.43 70.60 70.38 70.20 69.95 70.49 71.09 71.56 71.95 72.25 72.04 70.78 69.89 69.58 69.67 68.57 67.61 66.91 66.66 65.64 64.48 64.04
37.31 33.61 36.04 40.37 44.09 43.36 41.45 37.90 44.47 45.06 44.38 44.29 44.98 45.74 46.45 46.79 47.99 49.09 49.67 49.13 52.30 56.87 64.69 65.56 67.67 68.15 68.45 67.93 68.71 70.29 69.72 68.85 69.15 69.77 69.68 69.89 71.06 72.10 71.65 70.76 70.34 69.43 67.83 66.73 66.81 66.16 65.69 65.47 63.45
34.93 35.39 37.07 38.18 41.89 41.09 38.30 39.22 43.03 44.92 44.51 44.62 44.77 45.36 45.91 46.29 47.68 49.35 50.13 50.29 53.00 61.85 65.38 66.09 67.00 67.30 67.34 66.58 67.20 68.38 70.04 71.31 70.77 69.23 68.55 68.82 68.75 69.43 70.18 70.50 69.82 68.80 67.54 66.80 66.31 65.80 65.51 65.24 65.18
39.60 37.56 36.96 39.20 41.91 39.60 37.76 38.22 41.70 43.48 42.14 41.85 42.74 43.60 44.81 45.74 48.25 49.02 50.27 54.49 59.13 64.15 64.77 65.88 66.40 66.51 65.97 64.93 64.31 64.44 64.79 67.81 69.50 70.83 71.20 71.10 70.02 68.78 67.97 67.77 68.40 68.19 67.90 67.50 67.01 66.71 65.42 64.48 63.87
38.33 36.26 35.86 39.73 42.07 39.82 39.52 38.99 41.11 42.70 42.81 43.27 43.21 43.75 44.82 45.92 46.57 48.69 50.69 55.25 59.36 63.34 64.69 64.14 65.62 65.15 66.51 64.43 62.48 63.33 63.59 64.28 65.29 65.77 66.45 65.39 65.61 67.29 68.83 67.90 67.41 67.56 67.58 67.09 66.89 66.06 65.68 65.66 64.39
36.63 35.05 35.93 37.08 40.35 39.37 38.41 36.31 38.65 42.56 43.04 44.12 44.60 44.42 45.33 46.07 46.29 46.75 49.06 52.06 56.03 60.34 61.25 62.01 62.67 63.33 62.41 61.30 59.65 57.91 57.56 56.69 56.38 58.35 60.55 62.10 63.96 64.99 65.87 65.51 67.00 67.25 67.06 67.06 67.50 66.98 65.74 65.27 64.70
33.44 40.50 40.82 39.30 36.15 31.54 37.81 29.10 35.26 39.25 40.75 42.52 43.79 43.36 44.57 45.70 46.34 46.35 47.47 50.86 54.47 57.63 58.12 59.58 59.14 59.13 59.41 59.20 57.11 55.82 53.86 53.25 55.34 56.88 59.22 60.34 62.54 63.42 64.13 64.23 64.82 65.09 66.60 66.68 66.91 68.01 67.16 66.16 64.78
38.12 41.95 39.55 39.14 34.56 31.79 32.50 29.94 33.65 37.25 38.60 40.91 42.40 44.37 46.67 47.20 46.66 46.55 46.87 49.85 53.80 55.62 56.82 57.07 56.82 56.70 56.17 55.85 55.46 54.85 54.52 54.95 56.55 56.90 57.43 59.22 60.54 62.14 63.43 63.72 63.63 63.45 63.47 65.01 66.44 66.83 66.93 66.61 65.80
42.48 38.48 35.75 33.01 31.05 27.00 31.41 31.40 30.12 34.68 38.06 40.33 44.43 46.51 48.38 47.49 48.06 48.73 48.22 50.55 52.65 54.07 54.60 54.90 55.72 54.40 55.67 56.23 56.06 56.12 56.08 55.12 53.89 55.57 57.88 57.51 59.70 61.24 62.38 62.69 62.78 62.37 62.14 62.46 63.08 64.38 65.16 65.01 65.11
37.46 32.24 25.58 24.78 24.43 25.30 32.11 30.53 32.72 38.39 41.79 44.05 45.16 46.11 46.05 45.90 46.55 46.67 47.71 49.68 51.89 52.61 53.18 53.49 53.18 54.25 56.00 55.79 56.13 55.07 53.74 53.83 54.22 56.45 57.08 56.17 58.21 59.23 59.19 59.53 58.87 59.00 60.15 60.69 62.37 61.76 61.36 61.62 62.51
35.11 33.91 26.89 22.71 23.34 26.08 33.67 28.82 34.48 42.51 45.71 45.83 45.82 44.87 45.24 44.27 44.26 46.14 48.50 51.23 51.96 52.55 52.56 52.77 52.64 53.37 52.69 53.13 53.56 53.42 53.59 53.43 55.24 56.70 55.83 57.13 58.25 59.10 58.81 58.38 57.57 57.76 58.22 58.06 58.87 60.80 61.51 61.67 61.01
35.73 31.50 35.04 28.83 29.11 26.00 29.03 34.40 39.92 43.52 43.93 45.15 45.35 45.84 44.84 44.93 45.04 44.87 45.71 49.22 51.86 51.97 51.69 51.72 50.86 51.19 51.83 52.26 52.33 52.17 52.97 54.72 55.78 56.28 56.10 57.48 58.82 59.51 58.54 57.75 56.44 56.86 56.92 56.94 56.97 57.30 58.05 60.66 61.57
40.28 40.72 32.56 30.16 24.90 22.99 27.50 30.10 32.38 39.57 41.14 43.97 44.31 44.32 44.98 45.76 46.34 46.73 47.37 48.40 48.81 49.15 49.34 50.45 50.34 50.96 52.04 52.03 51.60 52.42 53.56 54.48 55.33 55.21 55.26 56.64 58.43 58.72 58.33 57.25 56.37 55.94 56.11 56.14 55.96 55.26 55.63 56.54 57.28
38.16 35.52 34.57 33.38 29.70 24.50 23.18 28.53 38.83 40.94 41.55 41.13 42.07 44.36 44.60 46.38 47.15 47.12 46.90 47.18 47.81 48.32 48.98 49.70 49.67 49.46 49.68 50.57 51.61 51.93 52.29 52.54 54.14 54.21 54.60 55.29 57.21 57.71 57.55 57.16 56.34 55.45 55.26 55.36 55.07 54.60 55.03 55.31 55.81
37.49 35.77 35.22 30.33 28.95 27.69 26.57 28.07 40.51 41.81 42.12 42.32 42.15 44.18 44.63 45.18 47.15 47.35 47.40 47.04 46.47 46.31 46.09 46.44 47.64 47.79 49.09 50.11 50.81 50.89 50.90 51.33 51.99 52.86 53.26 53.51 54.26 56.21 57.01 56.83 56.17 55.44 55.39 55.01 54.07 53.79 55.30 55.28 54.82
MSLP
1009.70 1009.41 1009.48 1009.91 1011.42 1012.19 1011.73 1010.14 1008.81 1007.86 1006.73 1005.84 1005.55 1005.50 1005.43 1006.12 1006.77 1007.92 1007.21 1007.64 1007.88 1008.32 1008.98 1009.58 1009.90 1010.12 1010.35 1010.42 1010.67 1010.97 1011.31 1011.53 1011.94 1012.31 1012.79 1013.14 1013.52 1013.92 1014.26 1014.50 1014.65 1014.74 1014.86 1015.05 1015.27 1015.52 1015.75 1015.96 1016.14
1009.66 1009.30 1009.77 1010.70 1011.73 1012.57 1011.58 1009.46 1008.59 1007.56 1006.72 1005.33 1005.20 1005.05 1005.43 1006.19 1006.52 1007.33 1007.48 1007.76 1008.23 1008.42 1008.87 1009.64 1009.99 1010.29 1010.59 1010.53 1010.81 1011.23 1011.55 1011.82 1012.19 1012.54 1012.94 1013.34 1013.71 1014.04 1014.37 1014.61 1014.73 1014.82 1014.97 1015.18 1015.46 1015.71 1015.99 1016.21 1016.38
1009.57 1009.66 1010.50 1011.34 1012.00 1011.99 1010.91 1009.04 1008.21 1007.44 1006.04 1005.91 1004.94 1004.77 1005.20 1006.02 1006.45 1006.93 1006.84 1007.47 1008.10 1008.67 1008.94 1009.64 1010.02 1010.27 1010.73 1010.63 1010.93 1011.32 1011.65 1012.04 1012.43 1012.81 1013.19 1013.59 1013.92 1014.24 1014.53 1014.79 1014.98 1015.12 1015.25 1015.43 1015.63 1015.88 1016.11 1016.27 1016.37
1009.85 1010.46 1011.53 1011.44 1011.75 1010.73 1009.79 1008.55 1008.03 1007.17 1005.69 1005.38 1005.12 1005.41 1005.41 1005.49 1006.07 1006.45 1006.98 1007.64 1008.30 1008.77 1008.93 1009.34 1009.93 1010.22 1010.62 1010.90 1011.12 1011.50 1011.83 1012.13 1012.50 1012.85 1013.26 1013.70 1014.06 1014.38 1014.65 1014.87 1015.04 1015.17 1015.34 1015.56 1015.78 1016.02 1016.18 1016.32 1016.48
1010.58 1011.35 1011.93 1011.79 1011.01 1009.85 1008.88 1008.01 1007.47 1007.13 1006.31 1005.56 1005.47 1005.63 1005.80 1005.94 1005.98 1006.46 1007.11 1007.77 1008.36 1008.92 1009.16 1009.45 1009.73 1010.02 1010.37 1010.70 1011.04 1011.41 1011.77 1012.11 1012.49 1012.92 1013.31 1013.65 1013.95 1014.39 1014.60 1014.78 1014.98 1015.15 1015.34 1015.52 1015.69 1015.87 1016.11 1016.28 1016.42
1011.35 1012.01 1012.29 1011.77 1010.48 1009.23 1008.12 1007.65 1007.24 1006.89 1006.15 1005.59 1005.61 1005.60 1006.09 1006.17 1006.53 1006.68 1007.12 1007.69 1008.42 1008.88 1009.31 1009.69 1010.02 1010.10 1010.38 1010.73 1011.00 1011.39 1011.79 1012.20 1012.57 1012.94 1013.26 1013.51 1013.85 1014.09 1014.36 1014.60 1014.85 1015.05 1015.19 1015.33 1015.48 1015.64 1015.77 1016.08 1016.43
1011.54 1012.22 1012.00 1011.28 1010.08 1009.03 1007.75 1007.36 1007.04 1006.67 1006.14 1005.37 1005.27 1005.99 1006.33 1006.47 1006.69 1007.25 1007.62 1008.16 1008.54 1009.05 1009.42 1009.74 1010.11 1010.40 1010.63 1010.89 1011.19 1011.63 1012.13 1012.58 1012.95 1013.25 1013.49 1013.77 1013.98 1014.23 1014.52 1014.79 1014.98 1015.09 1015.23 1015.36 1015.44 1015.59 1015.82 1016.07 1016.35
1011.35 1011.99 1011.94 1010.95 1009.86 1008.95 1007.69 1007.13 1006.78 1006.68 1005.83 1005.13 1005.23 1005.97 1006.12 1005.93 1006.81 1007.47 1008.12 1008.80 1009.11 1009.31 1009.40 1009.62 1009.84 1010.10 1010.46 1010.90 1011.29 1011.72 1012.16 1012.60 1013.06 1013.47 1013.76 1014.08 1014.35 1014.54 1014.70 1014.90 1015.10 1015.33 1015.48 1015.60 1015.84 1016.05 1016.31 1016.50 1016.58
1011.10 1011.91 1011.70 1010.41 1009.54 1008.49 1007.88 1007.32 1006.63 1006.01 1005.69 1005.27 1005.46 1005.64 1005.72 1006.18 1007.06 1007.88 1008.59 1009.31 1009.62 1009.64 1009.65 1009.87 1009.99 1010.21 1010.59 1010.94 1011.26 1011.66 1012.10 1012.56 1013.02 1013.43 1013.76 1014.17 1014.57 1014.85 1015.06 1015.17 1015.28 1015.43 1015.65 1015.89 1016.09 1016.24 1016.40 1016.53 1016.59
1011.20 1011.39 1010.36 1009.32 1008.66 1008.20 1007.77 1007.64 1007.41 1006.63 1005.79 1005.81 1005.64 1005.94 1006.17 1006.46 1007.32 1007.92 1008.48 1009.02 1009.51 1009.61 1009.66 1009.82 1009.99 1010.25 1010.58 1010.95 1011.45 1011.86 1012.18 1012.56 1012.87 1013.24 1013.67 1013.94 1014.19 1014.43 1014.70 1015.03 1015.42 1015.62 1015.82 1016.04 1016.13 1016.42 1016.52 1016.29 1016.40
1010.55 1010.25 1009.35 1008.36 1008.15 1007.97 1007.80 1007.84 1007.56 1006.89 1005.98 1005.88 1005.93 1006.15 1006.58 1007.10 1007.49 1008.00 1008.23 1008.29 1008.29 1009.16 1009.51 1009.73 1009.95 1010.15 1010.59 1011.02 1011.36 1011.82 1012.25 1012.60 1012.99 1013.30 1013.61 1013.88 1014.14 1014.30 1014.50 1014.75 1014.87 1014.99 1015.12 1015.66 1015.77 1016.06 1016.49 1016.69 1016.48
1010.24 1009.44 1008.83 1007.67 1007.77 1008.09 1007.80 1007.77 1007.83 1007.23 1005.94 1005.84 1005.91 1006.09 1006.55 1007.19 1007.89 1008.13 1008.32 1008.49 1008.75 1009.01 1009.27 1009.60 1009.91 1010.13 1010.48 1010.70 1011.07 1011.46 1011.75 1012.12 1012.65 1013.05 1013.50 1013.81 1014.10 1014.35 1014.51 1014.67 1014.79 1014.96 1015.20 1015.27 1015.85 1015.74 1015.83 1015.96 1016.34
1009.75 1009.05 1008.55 1008.08 1007.94 1007.78 1007.56 1007.72 1007.56 1007.01 1006.32 1006.00 1006.03 1006.15 1006.64 1007.02 1007.26 1007.39 1007.64 1008.10 1008.55 1008.83 1008.90 1009.18 1009.66 1009.94 1010.14 1010.36 1010.73 1011.20 1011.61 1011.83 1012.21 1012.65 1013.03 1013.45 1013.76 1014.20 1014.39 1014.62 1014.83 1014.99 1015.15 1015.19 1015.23 1015.37 1015.67 1015.68 1015.81
1008.68 1008.51 1008.00 1007.80 1007.79 1007.86 1008.06 1007.40 1007.53 1006.69 1006.21 1006.26 1006.26 1006.16 1006.26 1006.95 1007.24 1007.23 1007.43 1007.72 1008.09 1008.13 1008.28 1008.52 1008.98 1009.42 1009.92 1010.19 1010.44 1010.91 1011.20 1011.58 1012.10 1012.41 1012.67 1012.96 1013.42 1013.79 1014.07 1014.23 1014.41 1014.61 1014.73 1014.87 1015.13 1015.07 1015.01 1015.34 1015.34
1008.54 1008.71 1008.02 1007.98 1007.59 1007.54 1007.57 1007.57 1007.32 1006.39 1006.29 1006.48 1006.69 1006.67 1006.64 1006.68 1006.81 1007.24 1006.88 1006.99 1007.00 1007.14 1007.37 1007.86 1008.39 1008.99 1009.44 1009.98 1010.30 1010.61 1011.01 1011.61 1012.00 1012.22 1012.53 1012.87 1013.06 1013.42 1013.83 1014.11 1014.18 1014.03 1014.31 1014.46 1014.55 1014.50 1014.76 1014.96 1015.08
1008.68 1008.79 1008.25 1007.25 1007.27 1006.96 1007.20 1007.32 1006.48 1005.97 1006.25 1006.58 1006.63 1006.70 1006.78 1006.61 1006.56 1006.36 1006.86 1006.82 1006.58 1006.81 1007.13 1007.68 1008.04 1008.53 1008.92 1009.38 1009.84 1010.37 1010.83 1011.23 1011.63 1011.94 1012.17 1012.53 1012.99 1013.12 1013.35 1013.48 1013.56 1013.64 1013.94 1014.03 1014.46 1014.46 1014.53 1014.49 1014.67
1008.70 1008.78 1008.27 1007.29 1006.55 1006.67 1007.06 1007.13 1006.29 1006.07 1006.43 1006.66 1006.59 1006.42 1006.46 1006.39 1006.45 1006.28 1006.11 1006.47 1006.40 1006.47 1006.85 1007.30 1007.67 1008.19 1008.61 1009.11 1009.69 1010.07 1010.54 1010.98 1011.19 1011.52 1011.88 1011.98 1012.17 1012.40 1012.73 1013.14 1013.06 1013.22 1013.57 1013.78 1013.94 1014.27 1014.21 1014.12 1014.47
1008.76 1008.66 1007.90 1007.24 1006.72 1006.71 1006.92 1006.96 1006.39 1005.94 1006.23 1006.34 1006.29 1006.14 1006.14 1006.23 1005.64 1005.16 1005.70 1006.20 1006.48 1006.48 1006.72 1007.00 1007.37 1007.93 1008.53 1009.18 1009.78 1010.13 1010.37 1010.63 1010.69 1011.23 1011.37 1011.74 1012.12 1012.30 1012.41 1012.57 1012.62 1012.81 1013.26 1013.48 1013.41 1013.52 1013.79 1013.91 1014.13
1008.14 1008.17 1007.97 1007.46 1006.90 1006.80 1006.80 1006.89 1006.28 1005.73 1006.00 1006.20 1005.79 1005.93 1005.73 1005.68 1004.81 1005.07 1005.33 1005.54 1006.38 1006.69 1006.75 1006.96 1007.39 1007.60 1008.18 1008.94 1009.49 1009.97 1010.28 1010.69 1010.96 1011.19 1011.19 1011.37 1011.61 1011.78 1012.14 1012.38 1012.50 1012.71 1012.81 1012.77 1012.80 1013.08 1013.19 1013.31 1013.73
1008.11 1008.21 1008.14 1007.65 1007.13 1007.26 1006.93 1006.88 1006.40 1005.88 1005.72 1005.56 1005.61 1005.55 1005.37 1005.00 1004.98 1005.36 1005.63 1005.73 1006.13 1006.15 1006.14 1006.62 1007.02 1007.31 1007.53 1008.19 1009.02 1009.46 1010.07 1010.81 1010.95 1011.13 1011.24 1011.33 1011.35 1011.53 1011.70 1012.01 1012.15 1012.39 1012.54 1012.52 1012.60 1012.64 1012.79 1012.75 1012.79
1008.31 1008.38 1008.37 1008.24 1007.85 1007.69 1007.50 1007.18 1006.71 1005.83 1005.49 1005.37 1005.37 1005.48 1005.53 1005.42 1005.45 1005.17 1005.74 1006.27 1006.34 1006.31 1006.14 1006.33 1006.76 1007.14 1007.62 1007.96 1008.81 1009.83 1010.50 1010.89 1011.32 1011.61 1011.59 1011.58 1011.42 1011.38 1011.44 1011.60 1011.86 1011.99 1012.17 1012.21 1012.18 1012.14 1012.34 1012.39 1012.39
1008.22 1008.02 1008.30 1008.64 1009.03 1009.14 1008.46 1008.36 1007.60 1006.79 1006.44 1005.77 1005.40 1005.70 1005.43 1005.34 1005.24 1005.30 1005.73 1005.85 1005.84 1006.07 1006.30 1006.47 1006.83 1007.46 1008.06 1008.42 1008.96 1009.41 1010.14 1010.97 1011.13 1011.41 1011.65 1011.59 1011.30 1011.29 1011.37 1011.53 1011.70 1011.87 1011.89 1011.88 1011.68 1011.65 1011.69 1011.78 1011.69
1007.67 1007.71 1008.40 1008.87 1009.48 1009.88 1009.81 1009.83 1007.95 1007.30 1006.62 1006.05 1005.72 1005.58 1005.64 1005.77 1005.90 1005.71 1005.51 1005.17 1005.16 1005.58 1006.05 1006.62 1007.04 1007.62 1008.14 1008.52 1008.89 1009.36 1010.04 1010.61 1011.08 1011.38 1011.52 1011.34 1011.28 1011.14 1011.22 1011.24 1011.41 1011.55 1011.60 1011.54 1011.41 1011.31 1011.26 1011.26 1011.25
1007.17 1008.17 1009.25 1010.01 1010.66 1010.71 1010.15 1009.86 1008.55 1007.59 1006.50 1006.13 1005.91 1005.87 1005.84 1005.82 1005.49 1005.29 1005.04 1005.16 1005.58 1005.94 1006.31 1007.11 1007.54 1007.73 1008.09 1008.43 1008.94 1009.55 1010.05 1010.62 1011.19 1011.31 1010.93 1011.01 1011.33 1011.29 1011.15 1011.08 1011.24 1011.47 1011.42 1011.27 1011.28 1011.22 1011.14 1011.04 1010.96
1007.31 1008.63 1010.63 1011.56 1011.95 1011.30 1010.48 1010.21 1008.44 1007.22 1006.60 1006.42 1006.51 1006.40 1006.38 1006.56 1006.22 1005.73 1005.57 1005.63 1005.90 1006.34 1006.83 1007.21 1007.69 1008.24 1008.47 1008.77 1009.10 1009.52 1010.05 1010.26 1010.33 1010.31 1010.52 1010.89 1011.16 1011.24 1011.08 1011.07 1011.20 1011.20 1011.14 1011.06 1010.94 1010.96 1010.93 1010.87 1010.80
1007.34 1008.57 1010.56 1011.53 1012.34 1011.87 1010.89 1009.83 1008.03 1007.31 1007.11 1006.95 1006.94 1006.94 1006.83 1006.98 1006.89 1006.62 1006.35 1005.83 1006.10 1006.69 1007.15 1007.31 1007.81 1008.25 1008.57 1008.97 1009.18 1009.41 1009.66 1009.62 1009.60 1009.83 1010.02 1010.20 1010.33 1010.35 1010.53 1010.79 1010.88 1010.85 1010.73 1010.71 1010.57 1010.44 1010.50 1010.52 1010.51
1007.42 1008.66 1009.33 1011.20 1012.67 1012.51 1011.28 1009.81 1008.37 1007.80 1007.68 1007.36 1007.31 1007.24 1007.34 1007.33 1007.29 1007.21 1006.98 1006.72 1006.68 1006.83 1007.15 1007.39 1007.93 1008.38 1008.70 1008.79 1008.91 1009.13 1009.31 1009.36 1009.27 1009.25 1009.38 1009.49 1009.66 1009.87 1009.96 1010.13 1010.34 1010.36 1010.25 1010.16 1010.09 1010.02 1009.96 1009.90 1009.95
1006.71 1008.02 1009.87 1011.38 1012.87 1013.06 1011.91 1010.83 1009.19 1008.58 1008.37 1008.20 1008.05 1008.10 1007.81 1007.62 1007.52 1007.37 1007.18 1007.06 1007.36 1007.62 1007.95 1008.07 1008.26 1008.25 1008.17 1008.36 1008.48 1008.45 1008.58 1008.74 1008.74 1009.02 1009.13 1009.18 1009.20 1009.47 1009.47 1009.52 1009.67 1009.82 1009.85 1009.76 1009.71 1009.57 1009.39 1009.39 1009.38
1007.88 1008.79 1010.02 1011.21 1012.45 1012.97 1012.64 1010.84 1009.28 1008.99 1008.84 1008.90 1009.03 1008.86 1008.77 1008.51 1008.46 1007.90 1007.60 1007.65 1007.68 1007.81 1008.09 1008.25 1008.49 1008.60 1008.51 1008.53 1008.58 1008.73 1008.78 1008.94 1008.96 1008.87 1008.64 1008.70 1008.71 1008.80 1008.86 1008.79 1008.93 1009.12 1009.27 1009.29 1009.34 1009.20 1009.10 1009.05 1008.80
1008.76 1009.63 1010.30 1011.78 1013.24 1013.46 1012.92 1010.95 1009.28 1009.01 1009.05 1009.24 1009.25 1009.15 1009.02 1008.76 1008.56 1008.48 1008.30 1008.31 1008.51 1008.39 1008.54 1008.67 1008.83 1008.85 1008.69 1008.62 1008.58 1008.64 1008.57 1008.53 1008.68 1008.85 1008.88 1009.02 1009.19 1008.89 1008.47 1008.35 1008.37 1008.36 1008.39 1008.50 1008.65 1008.58 1008.45 1008.39 1008.25
Wind_Speed
7 6 1 4 5 6 3 6 2 5 9 1 4 2 6 4 2 4 1 4 11 14 12 13 14 16 17 19 19 18 15 15 15 16 16 16 15 14 13 12 12 12 12 12 12 12 12 12 12
5 3 4 3 5 3 6 5 3 1 5 11 4 1 4 2 3 4 7 6 11 13 12 10 15 15 16 18 18 18 17 16 16 16 16 15 14 14 13 12 12 12 12 12 12 12 11 11 11
3 3 4 5 4 6 6 5 2 5 12 5 3 5 2 1 3 7 4 14 14 12 11 11 15 15 14 18 18 17 17 17 16 16 15 14 13 13 11 10 10 11 11 11 11 11 10 10 10
2 5 5 5 6 6 7 4 3 8 7 4 3 6 2 2 6 5 13 14 13 12 11 15 16 16 15 17 17 17 16 17 16 16 15 14 13 11 10 9 9 9 10 10 10 9 8 9 9
4 3 3 1 4 5 3 5 5 4 5 4 4 6 2 3 6 14 14 14 13 10 9 11 17 17 17 18 18 18 17 16 16 15 15 14 14 11 10 10 9 9 9 10 11 10 8 8 8
4 3 3 4 4 3 2 4 2 2 5 4 1 6 6 3 6 10 12 13 11 12 9 8 14 15 16 16 17 17 16 16 16 15 15 14 14 14 13 12 11 11 11 11 11 11 10 9 8
6 4 4 3 3 1 2 3 3 2 6 5 5 2 2 3 3 7 8 8 11 10 10 7 8 11 14 13 13 13 13 13 12 12 12 12 12 11 11 10 10 10 11 11 12 11 10 9 8
5 5 3 5 3 4 2 2 2 1 5 3 3 4 5 4 10 9 8 6 5 7 9 10 9 9 8 8 13 13 13 13 12 11 10 10 9 9 9 8 7 8 8 8 8 7 5 5 6
3 3 4 5 6 4 1 5 6 3 3 3 4 1 3 14 12 9 8 4 3 4 5 6 8 6 6 6 9 12 15 13 12 11 11 7 3 3 5 5 8 7 7 6 5 5 5 4 5
5 5 10 7 5 1 5 3 5 5 5 5 2 6 6 14 11 10 10 9 7 9 7 6 6 7 6 6 5 5 5 5 5 6 6 5 5 5 5 6 6 5 6 5 3 4 6 5 2
5 6 6 4 5 2 3 7 3 6 2 2 4 5 5 4 5 7 9 11 14 7 7 8 6 7 8 5 4 3 3 3 2 3 4 4 3 3 3 2 3 4 6 3 3 2 2 4 3
4 8 4 5 3 5 3 1 5 4 5 2 3 2 5 8 7 6 5 6 7 8 7 6 7 8 9 5 6 6 6 6 5 7 5 4 3 4 3 3 4 3 3 4 3 2 2 4 5
5 3 6 11 7 5 5 6 6 5 10 8 6 4 7 5 8 8 10 7 6 8 9 10 10 10 9 9 7 7 6 6 7 8 8 5 5 4 2 2 2 2 2 3 3 3 3 4 5
7 8 10 5 7 4 6 9 7 6 7 7 5 7 6 8 8 4 7 9 10 10 12 12 13 12 10 10 9 7 5 6 5 7 8 10 4 4 4 4 4 4 4 4 5 5 5 6 4
3 3 6 6 5 7 7 7 7 13 7 8 8 8 8 10 5 10 9 8 10 9 9 12 12 11 12 11 8 6 6 5 6 7 8 9 7 5 4 4 4 5 5 5 4 4 3 4 3
6 2 3 4 9 6 10 7 4 10 7 9 9 9 8 9 10 10 8 9 8 5 9 7 10 12 12 11 8 6 6 5 4 4 5 6 6 7 6 5 6 4 3 4 5 5 5 5 5
4 3 5 5 9 4 6 4 6 3 6 8 10 10 9 9 8 10 10 10 10 9 8 9 9 11 10 7 6 6 6 4 4 4 3 6 7 8 6 6 5 4 5 5 5 5 5 5 5
6 5 4 5 1 3 2 6 8 5 4 9 9 9 8 9 13 10 8 7 8 7 6 6 7 9 8 6 4 3 3 4 3 3 3 3 4 4 5 4 6 4 5 5 5 6 4 5 4
5 3 2 3 3 3 3 4 11 8 3 8 9 8 9 10 10 5 5 6 7 6 8 9 9 9 10 6 6 3 3 3 2 2 4 3 3 4 5 5 5 5 7 8 8 5 8 6 4
2 2 3 6 5 4 6 7 8 7 5 5 5 8 10 5 8 3 5 7 9 10 10 8 8 10 10 5 3 3 4 3 3 3 5 4 4 3 3 3 4 5 5 6 7 8 5 4 6
3 4 3 6 4 3 4 6 4 5 5 5 4 4 5 6 9 6 4 6 2 8 10 10 9 8 5 8 7 4 4 4 3 2 2 1 2 3 3 2 2 3 3 5 6 6 8 7 4
3 8 9 5 4 3 3 6 4 4 7 6 7 4 7 7 8 6 7 7 10 11 4 6 7 7 5 6 6 5 5 4 2 3 2 2 2 3 4 3 2 1 2 5 6 5 7 6 8
8 5 6 5 3 4 1 1 8 2 3 6 7 7 6 7 7 10 10 12 11 8 7 6 8 8 8 7 7 6 5 3 3 2 4 4 3 3 3 3 3 0 1 3 4 6 5 5 6
5 5 7 5 4 4 5 6 5 4 5 2 4 7 7 9 8 7 5 6 4 6 7 7 6 6 7 7 8 8 8 6 5 4 3 3 2 2 2 3 1 1 1 1 2 4 6 6 6
6 6 3 3 1 6 1 2 8 4 4 3 7 8 8 8 9 4 2 5 6 8 7 7 7 5 5 7 7 8 8 9 8 6 5 5 4 3 4 4 3 2 2 3 3 2 4 4 5
6 9 7 6 5 4 1 5 5 2 5 2 2 2 5 8 7 5 3 7 8 9 8 8 8 7 7 7 8 7 8 5 5 6 5 5 5 5 6 6 5 6 4 3 3 2 1 3 4
4 4 6 8 3 3 4 6 6 2 3 5 6 7 7 7 7 7 7 7 4 9 10 8 7 5 6 8 7 7 7 7 8 9 7 6 5 5 7 7 7 6 6 5 3 3 2 3 3
4 7 4 3 6 4 3 4 6 1 5 5 7 8 6 5 7 6 5 4 4 4 2 2 5 9 8 7 6 7 8 7 7 5 8 8 8 8 8 8 8 7 6 6 5 4 4 4 4
3 2 6 6 5 6 2 6 5 6 5 6 6 7 7 8 8 5 2 3 3 3 4 5 4 5 7 5 4 4 5 5 4 5 6 8 7 10 10 10 10 9 8 7 6 6 5 6 5
2 3 4 6 5 2 4 8 2 7 4 4 7 6 5 7 5 7 6 6 5 4 4 4 4 6 6 6 6 6 6 5 5 5 6 4 7 6 9 9 10 10 10 10 9 9 7 7 7
Wind_Direction
309 314 118 47 61 64 274 264 254 343 346 3 264 258 142 128 169 217 233 143 129 137 145 157 150 147 141 135 132 129 127 121 122 123 126 129 132 134 137 139 139 141 142 142 143 142 140 135 131
313 338 46 83 97 96 263 265 229 250 271 297 236 68 67 115 111 114 116 143 142 139 143 151 151 146 146 136 132 133 133 131 131 131 133 134 135 138 143 145 146 149 148 149 149 147 144 142 140
304 43 90 104 120 171 218 227 260 265 270 228 294 49 61 37 69 173 142 142 137 144 143 155 152 147 150 139 136 136 136 136 137 137 137 138 139 143 146 146 149 152 152 152 154 154 154 156 154
37 11 36 106 200 242 212 268 245 326 314 140 163 93 52 183 151 170 138 138 138 147 146 156 155 151 150 143 140 141 142 141 142 142 142 144 146 145 145 150 154 158 159 162 162 162 166 168 166
30 58 75 139 235 254 225 263 292 317 274 280 336 159 155 37 108 135 140 147 147 145 148 154 160 158 156 154 151 151 151 150 149 151 152 154 152 154 157 161 163 166 167 172 175 176 184 189 185
42 96 84 222 240 250 257 259 261 254 287 296 68 154 160 113 135 154 149 151 148 145 147 156 167 161 160 161 158 157 157 158 159 161 165 166 168 169 172 174 175 179 180 184 187 190 194 199 200
119 92 208 199 251 315 235 284 242 293 267 263 148 119 316 179 147 143 131 131 139 143 143 151 161 168 165 164 161 159 160 164 166 168 171 175 177 180 182 186 189 191 193 194 198 201 204 209 217
112 99 180 229 200 253 239 344 330 180 268 284 114 203 223 191 116 104 89 87 121 151 161 165 167 168 164 163 167 166 168 171 172 175 177 182 186 190 191 195 201 207 211 215 224 228 238 251 261
110 79 201 226 162 226 111 24 316 270 286 43 9 241 274 111 110 102 100 85 102 175 172 171 168 165 162 160 176 176 178 178 180 182 185 174 169 195 213 212 217 222 227 240 246 243 251 268 281
168 171 216 205 193 177 327 87 306 333 7 33 23 38 93 126 136 146 160 170 186 199 191 182 172 165 153 170 169 159 174 175 175 177 178 176 175 179 184 210 249 259 273 261 250 276 267 240 234
193 208 204 232 222 131 104 322 265 298 58 117 89 95 90 105 155 176 184 190 197 192 189 185 168 163 169 169 149 154 150 160 165 176 177 188 182 193 197 185 202 186 207 205 188 200 228 263 256
216 194 212 298 187 200 223 266 308 219 269 311 172 110 132 162 188 207 216 197 185 177 185 170 169 169 179 152 179 185 181 188 200 205 186 171 182 188 197 199 201 215 199 188 240 250 236 220 251
210 219 198 235 244 270 330 251 227 256 281 294 292 199 165 188 199 204 204 196 172 188 185 185 178 185 184 177 178 179 184 193 199 206 205 188 189 198 193 228 244 256 223 237 210 216 226 223 234
211 199 242 252 249 212 192 266 126 274 263 264 238 265 250 190 200 247 191 197 193 199 203 186 192 190 185 193 183 180 180 185 176 206 214 211 183 180 193 199 209 212 202 203 227 230 219 241 227
176 209 254 223 232 231 164 298 197 234 238 246 226 225 241 249 243 206 218 204 195 206 197 192 188 182 186 194 178 169 174 175 195 205 208 212 206 189 203 218 221 224 213 219 225 225 233 250 245
157 127 189 244 163 237 149 254 260 235 209 242 251 256 239 239 230 244 198 224 224 195 187 175 183 185 185 186 175 163 170 170 170 183 183 190 198 195 203 215 227 227 194 203 227 225 234 240 236
10 180 197 278 201 133 159 213 248 242 191 254 257 244 235 251 242 242 237 203 214 214 169 175 177 186 185 160 153 154 169 176 188 182 188 203 197 200 210 223 226 196 208 215 218 237 218 248 241
177 189 220 211 146 168 157 244 276 274 201 257 262 239 236 245 251 242 234 187 221 206 183 165 167 160 154 134 129 129 158 188 162 185 198 220 217 224 215 230 228 193 208 223 219 224 202 231 248
156 178 198 243 283 3 236 256 277 292 316 280 265 249 228 228 255 252 207 175 174 191 173 175 169 164 153 158 157 158 170 108 85 150 154 155 194 198 209 227 242 229 233 242 226 226 229 230 182
109 193 257 283 261 162 288 280 276 285 247 243 270 267 259 289 309 322 188 177 187 193 188 180 185 173 177 152 103 126 130 110 135 110 100 87 92 114 164 215 236 220 234 232 221 206 231 244 176
176 170 235 231 358 288 332 313 295 302 299 334 306 264 260 266 283 280 219 252 237 204 193 184 186 177 159 124 115 84 66 74 101 105 110 56 127 128 107 71 296 278 240 254 256 230 222 237 202
251 205 214 223 112 215 102 279 295 261 299 303 301 321 301 310 301 288 237 216 201 222 168 158 141 131 120 125 118 127 141 147 158 127 148 200 111 95 90 91 82 353 280 268 269 235 228 220 238
221 156 181 186 162 127 277 47 270 304 256 272 300 295 293 271 255 263 246 220 215 170 173 147 133 131 135 132 126 116 107 119 138 148 161 143 92 84 100 113 117 84 303 283 277 281 241 225 242
132 104 46 57 91 239 212 174 270 209 214 306 290 294 300 306 308 302 264 210 159 118 115 122 134 134 138 132 135 140 146 162 166 191 144 118 132 151 144 114 104 160 248 283 288 275 261 258 246
81 66 11 360 3 225 345 162 237 274 274 257 289 300 318 319 314 316 118 115 115 116 120 127 131 128 144 149 156 168 184 182 176 172 168 171 178 189 199 177 199 236 249 258 248 239 256 262 254
180 151 156 194 199 240 9 240 245 199 349 33 52 352 30 2 338 318 188 132 126 130 143 143 160 170 183 182 192 195 197 193 182 181 187 196 192 191 179 190 196 217 234 245 242 228 211 262 256
174 153 185 105 14 78 240 293 321 45 56 51 37 44 37 40 29 15 9 22 136 162 180 178 167 195 203 207 201 206 204 198 198 202 195 192 198 207 192 192 198 214 220 234 238 243 225 217 250
140 154 93 2 142 217 279 279 234 76 64 21 29 26 35 39 39 34 33 31 14 21 22 224 214 212 218 230 219 218 210 208 212 193 204 201 205 212 201 203 204 214 224 226 224 239 232 220 209
30 84 57 108 125 168 172 259 222 155 79 15 357 332 341 8 2 343 30 0 308 305 294 289 306 310 301 321 310 299 279 288 298 243 228 221 217 216 215 211 210 212 216 226 226 231 241 242 242
67 123 119 135 197 140 142 263 292 144 110 36 354 352 330 323 359 0 15 21 10 23 345 336 326 306 314 313 305 287 280 269 247 251 269 298 273 276 243 224 218 218 216 218 217 225 225 229 241